• In Hungary
  • List of Countries
  • For 7 days
  • Water Temperature
  • Satellite Maps
  • Weather Map
  • News
  • Weather Widgets
  • user-avatar
    Login

    Hourly Weather Horove

    Today, 18 October, Wednesday

    Time Temperature Precipitation Wind Pressure Humidity
    00:00 +9°C° 0 mm 2 mps 750 mmHg 93%
    01:00 +9°C° 0 mm 2 mps 750 mmHg 93%
    02:00 +9°C° 0 mm 2 mps 750 mmHg 94%
    03:00 +9°C° 0 mm 3 mps 750 mmHg 94%
    04:00 +9°C° 0 mm 3 mps 750 mmHg 94%
    05:00 +9°C° 0 mm 3 mps 749 mmHg 94%
    06:00 +8°C° 0 mm 4 mps 749 mmHg 92%
    07:00 +10°C° 0 mm 4 mps 749 mmHg 90%
    08:00 +10°C° 0 mm 5 mps 749 mmHg 89%
    09:00 +13°C° 0 mm 5 mps 749 mmHg 83%
    10:00 +14°C° 0 mm 6 mps 748 mmHg 78%
    11:00 +16°C° 0 mm 6 mps 748 mmHg 72%
    12:00 +17°C° 0 mm 6 mps 748 mmHg 68%
    13:00 +19°C° 0 mm 6 mps 748 mmHg 65%
    14:00 +20°C° 0 mm 6 mps 747 mmHg 61%
    15:00 +19°C° 0 mm 5 mps 747 mmHg 66%
    16:00 +17°C° 0 mm 4 mps 747 mmHg 70%
    17:00 +15°C° 0 mm 4 mps 746 mmHg 75%
    18:00 +14°C° 0 mm 4 mps 746 mmHg 78%
    19:00 +14°C° 0 mm 4 mps 746 mmHg 80%
    20:00 +14°C° 0 mm 4 mps 746 mmHg 82%
    21:00 +13°C° 0 mm 4 mps 746 mmHg 84%
    22:00 +13°C° 0 mm 4 mps 746 mmHg 85%
    23:00 +13°C° 0 mm 4 mps 746 mmHg 87%

    Tomorrow, 19 October, Thursday

    Time Temperature Precipitation Wind Pressure Humidity
    00:00 +12°C° 0 mm 3 mps 746 mmHg 88%
    01:00 +12°C° 0 mm 3 mps 746 mmHg 89%
    02:00 +11°C° 0 mm 3 mps 746 mmHg 91%
    03:00 +11°C° 0 mm 3 mps 745 mmHg 91%
    04:00 +12°C° 0 mm 2 mps 745 mmHg 92%
    05:00 +10°C° 0 mm 2 mps 745 mmHg 92%
    06:00 +12°C° 0 mm 2 mps 745 mmHg 90%
    07:00 +12°C° 0 mm 2 mps 746 mmHg 89%
    08:00 +13°C° 0 mm 2 mps 746 mmHg 87%
    09:00 +14°C° 0 mm 2 mps 746 mmHg 81%
    10:00 +16°C° 0 mm 2 mps 746 mmHg 75%
    11:00 +17°C° 0 mm 2 mps 746 mmHg 70%
    12:00 +17°C° 0 mm 2 mps 746 mmHg 67%
    13:00 +18°C° 0 mm 2 mps 746 mmHg 65%
    14:00 +19°C° 0 mm 2 mps 746 mmHg 62%
    15:00 +18°C° 0 mm 2 mps 746 mmHg 67%
    16:00 +16°C° 0 mm 2 mps 746 mmHg 71%
    17:00 +15°C° 0 mm 1 mps 746 mmHg 76%
    18:00 +15°C° 0 mm 1 mps 746 mmHg 78%
    19:00 +14°C° 0 mm 2 mps 746 mmHg 79%
    20:00 +13°C° 0 mm 2 mps 746 mmHg 81%
    21:00 +13°C° 0 mm 2 mps 746 mmHg 82%
    22:00 +12°C° 0 mm 2 mps 746 mmHg 84%
    23:00 +10°C° 0 mm 2 mps 747 mmHg 85%

    Day after tomorrow, 20 October, Friday

    Time Temperature Precipitation Wind Pressure Humidity
    00:00 +10°C° 0 mm 2 mps 747 mmHg 87%
    01:00 +10°C° 0 mm 2 mps 747 mmHg 88%
    02:00 +9°C° 0 mm 2 mps 747 mmHg 90%
    03:00 +9°C° 0 mm 2 mps 747 mmHg 91%
    04:00 +8°C° 0 mm 3 mps 747 mmHg 91%
    05:00 +8°C° 0 mm 3 mps 747 mmHg 92%
    06:00 +8°C° 0 mm 3 mps 748 mmHg 87%
    07:00 +9°C° 0 mm 3 mps 748 mmHg 83%
    08:00 +8°C° 0 mm 4 mps 748 mmHg 78%
    09:00 +10°C° 0 mm 4 mps 749 mmHg 71%
    10:00 +11°C° 0 mm 4 mps 749 mmHg 63%
    11:00 +12°C° 0 mm 4 mps 749 mmHg 56%
    12:00 +12°C° 0 mm 4 mps 749 mmHg 53%
    13:00 +12°C° 0 mm 4 mps 749 mmHg 49%
    14:00 +12°C° 0 mm 4 mps 749 mmHg 46%
    15:00 +11°C° 0 mm 3 mps 749 mmHg 50%
    16:00 +10°C° 0 mm 3 mps 750 mmHg 54%
    17:00 +9°C° 0 mm 3 mps 750 mmHg 58%
    18:00 +8°C° 0 mm 3 mps 750 mmHg 62%
    19:00 +7°C° 0 mm 3 mps 750 mmHg 65%
    20:00 +5°C° 0 mm 3 mps 751 mmHg 68%
    21:00 +5°C° 0 mm 3 mps 751 mmHg 70%
    22:00 +6°C° 0 mm 2 mps 751 mmHg 73%
    23:00 +5°C° 0 mm 2 mps 751 mmHg 75%

    21 October, Saturday

    Time Temperature Precipitation Wind Pressure Humidity
    00:00 +5°C° 0 mm 2 mps 751 mmHg 77%
    01:00 +4°C° 0 mm 2 mps 751 mmHg 80%
    02:00 +4°C° 0 mm 2 mps 752 mmHg 82%
    03:00 +4°C° 0 mm 2 mps 752 mmHg 84%
    04:00 +4°C° 0 mm 2 mps 752 mmHg 85%
    05:00 +3°C° 0 mm 2 mps 752 mmHg 87%
    06:00 +4°C° 0 mm 2 mps 752 mmHg 85%
    07:00 +4°C° 0 mm 2 mps 752 mmHg 83%
    08:00 +5°C° 0 mm 2 mps 752 mmHg 81%
    09:00 +6°C° 0 mm 2 mps 753 mmHg 74%
    10:00 +7°C° 0 mm 2 mps 753 mmHg 68%
    11:00 +9°C° 0 mm 2 mps 753 mmHg 62%
    12:00 +9°C° 0 mm 2 mps 753 mmHg 60%
    13:00 +9°C° 0 mm 2 mps 752 mmHg 57%
    14:00 +9°C° 0 mm 2 mps 752 mmHg 54%
    15:00 +9°C° 0 mm 2 mps 752 mmHg 56%
    16:00 +8°C° 0 mm 2 mps 752 mmHg 58%
    17:00 +7°C° 0 mm 2 mps 752 mmHg 59%
    18:00 +6°C° 0 mm 2 mps 753 mmHg 62%
    19:00 +6°C° 0 mm 2 mps 753 mmHg 64%
    20:00 +5°C° 0 mm 2 mps 753 mmHg 67%
    21:00 +4°C° 0 mm 2 mps 753 mmHg 68%
    22:00 +4°C° 0 mm 2 mps 753 mmHg 69%
    23:00 +4°C° 0 mm 1 mps 753 mmHg 70%

    22 October, Sunday

    Time Temperature Precipitation Wind Pressure Humidity
    00:00 +4°C° 0 mm 1 mps 753 mmHg 71%
    01:00 +4°C° 0 mm 1 mps 754 mmHg 73%
    02:00 +3°C° 0 mm 1 mps 754 mmHg 74%
    03:00 +3°C° 0 mm 1 mps 754 mmHg 76%
    04:00 +3°C° 0 mm 1 mps 754 mmHg 77%
    05:00 +2°C° 0 mm 1 mps 754 mmHg 79%
    06:00 +3°C° 0 mm 1 mps 754 mmHg 77%
    07:00 +3°C° 0 mm 1 mps 754 mmHg 75%
    08:00 +4°C° 0 mm 1 mps 754 mmHg 73%
    09:00 +5°C° 0 mm 1 mps 754 mmHg 67%
    10:00 +7°C° 0 mm 1 mps 754 mmHg 61%
    11:00 +7°C° 0 mm 0 mps 754 mmHg 56%
    12:00 +8°C° 0 mm 1 mps 754 mmHg 53%
    13:00 +9°C° 0 mm 1 mps 753 mmHg 50%
    14:00 +9°C° 0 mm 1 mps 753 mmHg 47%
    15:00 +8°C° 0 mm 1 mps 753 mmHg 51%
    16:00 +7°C° 0 mm 1 mps 753 mmHg 55%
    17:00 +5°C° 0 mm 0 mps 753 mmHg 59%
    18:00 +4°C° 0 mm 0 mps 753 mmHg 61%
    19:00 +5°C° 0 mm 1 mps 753 mmHg 63%
    20:00 +4°C° 0 mm 1 mps 753 mmHg 64%
    21:00 +4°C° 0 mm 1 mps 753 mmHg 66%
    22:00 +4°C° 0 mm 1 mps 753 mmHg 67%
    23:00 +3°C° 0 mm 1 mps 753 mmHg 69%

    23 October, Monday

    Time Temperature Precipitation Wind Pressure Humidity
    00:00 +2°C° 0 mm 2 mps 753 mmHg 70%
    01:00 +2°C° 0 mm 2 mps 753 mmHg 71%
    02:00 +2°C° 0 mm 2 mps 753 mmHg 72%
    03:00 +1°C° 0 mm 2 mps 753 mmHg 72%
    04:00 +1°C° 0 mm 2 mps 752 mmHg 72%
    05:00 +1°C° 0 mm 2 mps 752 mmHg 72%
    06:00 +1°C° 0 mm 3 mps 752 mmHg 68%
    07:00 +2°C° 0 mm 3 mps 752 mmHg 65%
    08:00 +1°C° 0 mm 4 mps 752 mmHg 61%
    09:00 +4°C° 0 mm 4 mps 752 mmHg 56%
    10:00 +5°C° 0 mm 5 mps 751 mmHg 52%
    11:00 +7°C° 0 mm 5 mps 751 mmHg 47%
    12:00 +7°C° 0 mm 5 mps 750 mmHg 46%
    13:00 +8°C° 0 mm 6 mps 750 mmHg 46%
    14:00 +8°C° 0 mm 6 mps 749 mmHg 45%
    15:00 +7°C° 0.3 mm 5 mps 749 mmHg 49%
    16:00 +7°C° 0.3 mm 5 mps 748 mmHg 53%
    17:00 +6°C° 0.3 mm 5 mps 748 mmHg 57%
    18:00 +6°C° 0.5 mm 5 mps 748 mmHg 59%
    19:00 +6°C° 0.5 mm 5 mps 747 mmHg 61%
    20:00 +5°C° 0.5 mm 6 mps 747 mmHg 63%
    21:00 +5°C° 0.5 mm 6 mps 746 mmHg 67%
    22:00 +5°C° 0.5 mm 6 mps 746 mmHg 71%
    23:00 +4°C° 0.5 mm 7 mps 746 mmHg 75%
    Show more